Погода в Лиски

Погода в Лиски : погода сейчас, прогноз погоды и архив. Всё, что Вы хотите узнать о погоде в Лиски!

Поиск расширенной информации на нашем сайте:

Другие новости

Новости СМИ2

Главная страница сайта

Новости сайта

02.10.2013

Напоминаем, что на нашем новом сайте вы можете получить высокодетализированные прогнозы погоды по пунктам России, СНГ и мира (включающие важные для авиации метеовеличины, такие как направление и скорость ветра, видимость, явления погоды, количество и форма облачности, нижняя и верхняя граница облачности), а также ознакомиться с разнообразными материалами по авиационной метеорологии и подборкой полезных ссылок на эту тему.

Сайт Метеоцентр.Азия посвящён разработке технологий оптимизации авиаметеорологического обслуживания, включая проектирование и перспективное создание нескольких автоматизированных авиаметеорологических систем:
- система выпуска высокодетальных прогностических карт явлений погоды для нижнего воздушного пространства по России и ближнему зарубежью;
- система верификации прогнозов TAF (выпускаемых синоптиками официальных АМСГ РФ и ближнего зарубежья) и AUTOTAF (выпускаемых сайтом Метеоцентр.Азия) - выявление ошибок, онлайн-сопоставление с фактической погодой METAR, автоматическое внесение коррективов в прогнозы при резком отклонении фактической погоды от прогноза, подсчёт оправдываемости прогнозов по элементам и в целом;
- система обработки, анализа и отображения авиаметеорологической информации для применения провайдерами метеорологической информации.

Рекомендуем: У нас. http://wwprint.ru/ полноцветная печать

Погода в Лиски - сегодня

Время (UTC), дата Ветер
(°,м/с) 
Видим.   Явления Облачность Т
(°С)
Тd
(°С)
f(%) Тe
(°С)
Pmin
(гПа)
dP
(гПа)
Po
(мм)
O2
(г/м3)
Тmin Tmax R s Состояние
почвы
06 21.03.17 140 (ЮВ) 10 км    10/10 630 м кучево-дожд. 
[Cb cap]
+5.3 +2.9 84 +6  1011.3  1.6  748  295  +5         
09 21.03.17 160 (Ю) 10 км    9/9 630 м кучево-дожд. 
[Cb cap]
+7.2 +3.2 76 +7  1012.7  1.4  749  294           
12 21.03.17 180 (Ю) 20000 м    9/9 660 м кучево-дожд. 
[Cb cap]
+8.6 +2.4 65 +10  1013.1  0.5  749  292           
15 21.03.17 290 (З) 20000 м    10/10 660 м кучево-дожд. 
[Cb cap]
+7.8 +2.8 71 +9  1014.4  1.3  750  293    +8.8       
18 21.03.17 030 (СВ) 10 км  {ливн. осадки}  10/10 660 м кучево-дожд. 
[Cb cap]
+6.2 +4.8 91 +7  1016.3  1.8  752  295           
21 21.03.17 360 (С) 10 км    8/8 700 м кучево-дожд. 
[Cb cap]
+3.8 +2.8 93 +5  1017.1  0.7  752  298           
00 22.03.17 тихо ()   10 км    4/4 600 м кучево-дожд. 
[Cb cap]
+1.1 +0.3 94 +1  1018.6  1.2  753  302           
03 22.03.17 360 (С) 0500 м  туман  ?/?  
+1.6 +1.6 100 +2  1019.6  1.1  754  302  +0.8    0.6     
06 22.03.17 040 (СВ) 2000 м  в посл. час туман  9/9 540 м 
[St]
+3.7 +3.2 97 +3  1020.3  0.8  755  299           
09 22.03.17 360 (С) 20000 м    4/4 600 м 
[Sc]
+9.8 +3.9 67 +9  1019.8  -0.2  754  293           
12 22.03.17 360 (С) 20000 м    6/6 660 м кучево-дожд. 
[Cb cap]
+11.8 +3.2 56 +12  1019.3  -0.4  754  291           
15 22.03.17 360 (С) 20000 м    4/0 средняя, верхняя 
[Ac trans|Ci fib]
+11.1 +2.5 55 +11  1019.5  0.1  754  292    +12.4       
18 22.03.17 030 (СВ) 20000 м    3/0 верхняя 
[Ci fib]
+4.7 +2.2 84 +6  1020.6  0.8  755  299           
21 22.03.17 010 (С) 10 км    4/0 верхняя 
[Ci fib]
+1.7 +0.6 92 +2  1020.9  0.2  755  302           
00 23.03.17 тихо ()   10 км    6/0 средняя 
[Ac trans]
+0.7 -0.1 94 +1  1021.3  0.2  755  303           
03 23.03.17 250 (З) 10 км    4/0 средняя 
[Ac trans]
+0 -0.6 96 +1  1021.6  0.3  755  304  -0.4         
06 23.03.17 180 (Ю) 20000 м    9/9 840 м 
[Sc]
+5.6 +3.2 85 +6  1021.2  755  298           
09 23.03.17 230 (ЮЗ) 20000 м    9/9 800 м 
[Sc]
+13 +3.4 52 +13  1020.8  -0.1  755  290           
12 23.03.17 260 (З) 20000 м    10/10 630 м кучево-дожд. 
[Cb cap]
+13.9 +2.7 47 +14  1020.4  -0.3  755  289           
15 23.03.17 320 (СЗ) 20000 м  {ливн. осадки}  10/10 600 м кучево-дожд. 
[Cb cap]
+9.6 +5.7 77 +11  1021.6  756  293    +15  0.0     
18 23.03.17 360 (С) 10 км  {ливн. осадки}  10/10 500 м 
[St]
+7.3 +6 91 +7  1023.8  757  296           
21 23.03.17 010 (С) 10 км    4/4 600 м 
[Sc]
+4.4 +2.9 90 +4  1024.9  0.9  758  300           
00 24.03.17 020 (С) 10 км    4/4 600 м 
[Sc]
+1.4 +0.3 92 +2  1026.1  759  304           
03 24.03.17 040 (СВ) 0500 м  туман  ?/?  
-1.1 -1 100 -1  1025.6  -0.6  758  307  -1.2         
06 24.03.17 140 (ЮВ) 4000 м  дымка{туман}  4/0 верхняя 
[Ci fib]
+3 +2.2 94 +2  1024.4  -1  757  302           
Время (UTC), дата Ветер
(°,м/с) 
Видим.   Явления Облачность Т
(°С)
Тd
(°С)
f(%) Тe
(°С)
Pmin
(гПа)
dP
(гПа)
Po
(мм)
O2
(г/м3)
Тmin Tmax R s Состояние
почвы

Для получения пояснительной информации подведите курсор к названию столбца.

ПОГОДА в Лиски - архив

Всё, что Вы хотите узнать о погоде в Лиски - удобно и подробно!

Выберите нужную дату (начиная с 1 января 2015* года) и нажмите кнопку "Найти".
Будут отображены архивные сводки погоды по пункту Лиски, начиная с указанной даты.


Отображать данные в формате CSV (для использования в таблицах Excel)


Внимание! Наш архив погоды предназначен исключительно для личного некоммерческого использования в познавательных целях. Если Вам необходимы официальные справки о состоянии погоды (для производственных, юридических, коммерческих и т.п. целей), обращайтесь в органы Росгидромета.

*Примечание: данная дата относится к архиву по метеостанциям СССР (Россия, СНГ, Балтия).
Архив по метеостанциям Зарубежной Европы и Азии (кроме Китая) хранится 10 дней, по другим регионам земного шара (Китай, Африка, Америка, Австралия, Океания) - 1 день.

Лиски - район местоположения метеостанции


Название, широта, долгота, высота метеостанции:
Лиски 51°ш. 39.5°д. 115 м над ур. моря [Российская Федерация]

Дополнительная информация

В oтличие oт бoльшинства пoгoдных сайтoв мы публикуем пoдрoбную метеoинфoрмацию в детальнoм прoфессиoнальнoм фoрмате.

Характеристики температуры и влажнoсти вoздуха измеряются на высoте 2 м в тени вдали oт зданий и деревьев.
Скoрoсть ветра измеряется на высoте 10 м (на урoвне рoста челoвека скoрoсть ветра ниже в 1.5-2 раза). Если метеoстанция нахoдится в гoрoде или в лесу, тo скoрoсть ветра занижена на 2-4 м/с пo сравнению с oткрытым местoм. Скoрoсть ветра над акватoриями крупных рек и oзёр, а также на вершинах хoлмoв на 2-5 м/с выше, чем в oбычных услoвиях.
Атмoсфернoе давление в разных тoчках местнoсти мoжет значительнo oтличаться oт давления на метеoстанции, в зависимoсти oт услoвий рельефа (при пoдъёме на 10 м давление пoнижается примернo на 1 мм рт.ст.).